Regional Weather Roundup
Issued by NWS

Home | Current Version | Previous Version | Text Only | Print | Product List | Glossary Off
Versions: 1 2 3 4 5 6 7 8 9 10 11 12 13 14 15 16 17 18 19 20 21 22 23 24 25 26 27 28 29 30 31 32 33 34 35 36 37 38 39 40 41 42 43 44 45 46 47 48 49 50

000
ASUS45 KSLC 280110
RWRUT

UTAH REGIONAL WEATHER ROUNDUP
NATIONAL WEATHER SERVICE SALT LAKE CITY UT
600 PM MST TUE JAN 27 2015

UTZ001>011-023>025-280200-

NORTHERN UTAH

CITY           SKY/WX    TMP DP  RH WIND       PRES   REMARKS
BRIGHAM CITY   MOCLDY    43  37  79 NW6       30.16S
HILL AFB       MOCLDY    47  29  49 N3        30.15S
LOGAN          MOCLDY    39  34  82 SE5       30.15F
OGDEN          CLOUDY    43  37  79 NE5       30.14S
PROVO AIRPORT  MOCLDY    46  34  61 SE5       30.17F
SALT LAKE CITY PTCLDY    47  38  71 NW5       30.13S
VERNAL         PTCLDY    40  26  57 CALM      30.22S
WENDOVER       PTCLDY    43  34  70 CALM      30.13F
HEBER CITY     MOCLDY    45  34  65 SE7G16    30.18S
WEST JORDAN    CLEAR     48  37  66 S13       30.14F

$$

UTZ012>022-026-027-280200-

SOUTHERN/CENTRAL UTAH

CITY           SKY/WX    TMP DP  RH WIND       PRES   REMARKS
BLANDING       PTCLDY    47  32  57 NW3       30.33S
BRYCE CANYON   MOCLDY    35  33  92 SE10      30.29R WCI  27
CEDAR CITY     CLEAR     45  36  70 SW13      30.22R
DELTA          CLEAR     49  34  58 S10       30.17S
MILFORD        PTCLDY    47  33  58 S13       30.19S
MOAB/CYNLANDS  LGT RAIN  45  33  63 SE3       30.22S
PRICE          CLOUDY    42  27  55 NE5       30.23F
ST GEORGE      MOCLDY    57  45  62 SW6       30.23R
KANAB          PTCLDY    46  39  76 CALM      30.28S

$$

REGIONAL REPORTS     COLORADO/ARIZONA

CITY           SKY/WX    TMP DP  RH WIND       PRES   REMARKS
CRAIG, CO      CLOUDY    36  30  79 CALM      30.22R
GRAND JUNCTION PTCLDY    42  28  57 NW5       30.24R
RIFLE          MOCLDY    44  27  51 SE3       30.23R
MONTROSE       PTCLDY    44  25  47 NW3       30.27R
CORTEZ         MOCLDY    42  30  62 SE3       30.26S
PAGE, AZ       NOT AVBL
GRAND CANYON   CLOUDY    44  37  76 SW5       30.29R
KINGMAN        PTCLDY    56  46  69 SW10      30.21S
FLAGSTAFF      PTCLDY    43  33  68 CALM      30.30S

$$

REGIONAL REPORTS    NEVADA/IDAHO/WYOMING

CITY           SKY/WX    TMP DP  RH WIND       PRES   REMARKS
LAS VEGAS, NV  PTCLDY    60  49  66 SE3       30.15S
ELY            MOCLDY    39  33  79 S13       30.19R WCI  31
ELKO           LGT RAIN  42  40  92 S5        30.12S
POCATELLO, ID  MOCLDY    45  37  73 S9        30.12S
BURLEY         CLOUDY    45  39  79 N5        30.08S
EVANSTON, WY   MOCLDY    39  31  72 SW10      30.18S WCI  32
ROCK SPRINGS   PTCLDY    39  25  57 SW8       30.16R WCI  33
KEMMERER       CLOUDY    36  30  80 W8        30.18S WCI  29

$$



USA.gov is the U.S. government's official web portal to all federal, state and local government web resources and services.